| time (UTC) | temp F | wind direction | speed knots | gust knots | rain 1hr in | rain 24hr in | rain mn in | humidity % | barometer mb |
| 20260503233016 | 56 | 0.0 | 1.7 | 0.00 | 0.00 | 0.00 | 26 | 1010.0 | |
| 20260503230016 | 56 | 0.0 | 2.6 | 0.00 | 0.00 | 0.00 | 24 | 1009.7 | |
| 20260503223036 | 57 | 338 | 0.9 | 2.6 | 0.00 | 0.00 | 0.00 | 21 | 1009.5 |
| 20260503220016 | 58 | 23 | 0.9 | 3.5 | 0.00 | 0.00 | 0.00 | 22 | 1009.5 |
| 20260503213036 | 58 | 23 | 0.9 | 7.0 | 0.00 | 0.00 | 0.00 | 19 | 1009.2 |
| 20260503210016 | 58 | 23 | 1.7 | 6.1 | 0.00 | 0.00 | 0.00 | 21 | 1009.3 |
| 20260503203016 | 57 | 0 | 0.9 | 6.1 | 0.00 | 0.00 | 0.00 | 25 | 1009.5 |
| 20260503200016 | 55 | 23 | 0.9 | 8.7 | 0.00 | 0.00 | 0.00 | 26 | 1009.7 |
| 20260503193056 | 56 | 23 | 1.7 | 7.0 | 0.00 | 0.00 | 0.00 | 25 | 1010.1 |
| 20260503190036 | 55 | 315 | 1.7 | 10.4 | 0.00 | 0.00 | 0.00 | 27 | 1010.4 |
| 20260503183016 | 56 | 23 | 1.7 | 7.0 | 0.00 | 0.00 | 0.00 | 28 | 1010.7 |
| 20260503180017 | 52 | 23 | 2.6 | 6.1 | 0.00 | 0.00 | 0.00 | 32 | 1011.0 |
| 20260503173016 | 52 | 338 | 1.7 | 7.0 | 0.00 | 0.00 | 0.00 | 32 | 1011.1 |
| 20260503053036 | 42 | 0.0 | 0.0 | 0.00 | 0.18 | 0.00 | 56 | 1011.7 | |
| 20260503050016 | 42 | 0.0 | 0.9 | 0.00 | 0.21 | 0.00 | 53 | 1011.9 | |
| 20260503043016 | 43 | 0.0 | 0.9 | 0.00 | 0.22 | 0.00 | 52 | 1012.0 | |
| 20260503040016 | 44 | 0.0 | 0.9 | 0.00 | 0.22 | 0.22 | 49 | 1012.1 | |
| 20260503033037 | 45 | 0.0 | 1.7 | 0.00 | 0.22 | 0.22 | 48 | 1011.9 | |
| 20260503030017 | 46 | 0.0 | 1.7 | 0.00 | 0.22 | 0.22 | 45 | 1012.0 | |
| 20260503023016 | 48 | 45 | 0.9 | 3.5 | 0.00 | 0.22 | 0.22 | 43 | 1012.2 |
| 20260503020016 | 49 | 23 | 0.9 | 1.7 | 0.00 | 0.22 | 0.22 | 41 | 1012.3 |
| 20260503013036 | 50 | 0 | 0.9 | 3.5 | 0.00 | 0.22 | 0.22 | 39 | 1011.9 |
| 20260503010016 | 51 | 0.0 | 1.7 | 0.00 | 0.22 | 0.22 | 39 | 1011.7 | |
| 20260503003016 | 52 | 0.0 | 1.7 | 0.00 | 0.22 | 0.22 | 39 | 1011.3 | |
| 20260503000016 | 52 | 0 | 0.9 | 1.7 | 0.00 | 0.22 | 0.22 | 35 | 1011.1 |